Volver al catálogo

METEOR 2-17 DEB

ActivoPO
NORAD 38284·DEBRIS·🇷🇺 Russia

Lanzado Jan 30, 1988 desde Plesetsk Cosmodrome

Loading…

Próximos Pases (próximas 24 horas)

TLE

ActualizadoSource: Space-Track

Época: Sep 14, 2026, 01:44 UTC

1 38284U 88005AM  26257.07273392  .00001954  00000-0  11973-2 0  9993
2 38284  82.5339 187.4565 0019749 259.1633 100.7316 14.05258620606229

Sigue METEOR 2-17 DEB en tiempo real con AllMySat

Download on the App Store